EHI
0 0 0 0 0 0 0 0 0 0 0 0 0 0 0 0 0 0 0 0 0 0 0 0 0 0 0 0 0 0 0 0 0 0 0 0 0 0
0 0 0 0 0 0 0 0 0 0 0 0 0 0 0 0 0 0 0 0 0 0 0 0 0 0 0 0 0 0 0 0 0 0 0 0 0 0
0 0 0 0 0 0 0 0 0 0 0 0 0 0 0 0 0 0 0 0 0 0 0 0 0 0 0 0 0 0 0 0 0 0 0 0 0 0
0 0 0 0 0 0 0 0 0 0 0 0 0 0 0 0 0 0 0 0 0 0 0 0 0 0 0 0 0 0 0 0 0 0 0 0 0 0
0 0 0 0 0 0 0 0 0 0 0 0 0 0 0 0 0 0 0 0 0 0 0 0 0 0 0 0 0 0 0 0 0 0 0 0 0 0
0 0 0 0 0 0 0 0 0 0 0 0 0 0 0 0 0 0 0 0 0 0 0 0 0 0 0 0 0 0 0 0 0 0 0 0 0 0
0 0 0 0 0 0 0 0 0 0 0 0 0 0 0 0 0 0 0 0 0 0 0 0 0 0 0 0 0 0 0 0 0 0 0 0 0 0
0 0 0 0 0 0 0 0 0 0 0 0 0 0 0 0 0 0 0 0 0 0 0 0 0 0 0 0 0 0 0 0 0 0 0 0 0 0
0 0 0 0 0 0 0 0 0 0 0 0 0 0 0 0 0 0 0 0 0 0 0 0 0 0 0 0 0 0 0 0 0 0 0 0 0 0
0 0 0 0 0 0 0 0 0 0 0 0 0 0 0 0 0 0 0 0 0 0 0 0 0 0 0 0 0 0 0 0 0 0 0 0 0 0
0 0 0 0 0 0 0 0 0 0 0 0 0 0 0 0 0 0 0 0 0 0 0 0 0 0 0 0 0 0 0 0 0 0 0 0 0 0
0 0 0 0 0 0 0 0 0 0 0 0 0 0 0 0 0 0 0 0 0 0 0 0 0 0 0 0 0 0 0 0 0 0 0 0 0 0
0 0 0 0 0 0 0 0 0 0 0 0 0 0 0 0 0 0 0 0 0 0 0 0 0 0 0 0 0 0 0 0 0 0 0 0 0 0
0 0 0 0 0 0 0 0 0 0 0 0 0 0 0 0 0 0 0 0 0 0 0 0 0 0 0 0 0 0 0 0 0 0 0 0 0 0
0 0 0 0 0 0 0 0 0 0 0 0 0 0 0 0 0 0 0 0 0 0 0 0 0 0 0 0 0 0 0 0 0 0 0 0 0 0
0 0 0 0 0 0 0 0 0 0 0 0 0 0 0 0 0 0 0 0 0 0 0 0 0 0 0 0 0 0 0 0 0 0 0 0 0 0
0 0 0 0 0 0 0 0 0 0 0 0 0 0 0 0 0 0 0 0 0 0 0 0 0 0 0 0 0 0 0 0 0 0 0 0 0 0
0 0 0 0 0 0 0 0 0 0 0 0 0 0 0 0 0 0 0 0 0 0 0 0 0 0 0 0 0 0 0 0 0 0 0 0 0 0
0 0 0 0 0 0 0 0 0 0 0 0 0 0 0 0 0 0 0 0 0 0 0 0 0 0 0 0 0 0 0 0 0 0 0 0 0 0
0 0 0 0 0 0 0 0 0 0 0 0 0 0 0 0 0 0 0 0 0 0 0 0 0 0 0 0 0 0 0 0 0 0 0 0 0 0
0 0 0 0 0 0 0 0 0 0 0 0 0 0 0 0 0 0 0 0 0 0 0 0 0 0 0 0 0 0 0 0 0 0 0 0 0 0
0 0 0 0 0 0 0 0 0 0 0 0 0 0 0 0 0 0 0 0 0 0 0 0 0 0 0 0 0 0 0 0 0 0 0 0 0 0
0 0 0 0 0 0 0 0 0 0 0 0 0 0 0 0 0 0 0 0 0 0 0 0 0 0 0 0 0 0 0 0 0 0 0 0 0 0
Wind_Speed
2 2 2 1 1 1 2 3 4 2 1 2 1 1 1 0 0 1 1 2 2 2 3 3 4 4 5 5 6 6 6 6 7 7 8 8 9 9
2 3 2 1 2 2 2 2 2 4 2 2 2 1 1 0 1 1 0 2 3 2 2 3 3 3 3 4 5 5 6 6 6 7 7 8 8 8
2 2 2 2 2 1 2 2 2 3 3 1 1 1 1 1 1 1 1 1 1 2 2 3 3 2 2 3 4 4 5 5 5 6 6 7 7 8
1 2 1 2 2 1 1 2 1 2 3 2 1 1 1 0 0 0 1 1 0 1 2 2 2 2 2 2 2 3 3 4 4 5 6 6 7 7
2 2 2 2 1 1 1 1 1 1 2 2 1 1 1 1 1 1 1 1 1 0 1 1 1 1 1 1 1 2 2 3 3 4 4 5 6 7
1 2 2 3 3 3 2 2 2 2 2 2 1 0 0 1 1 0 1 1 1 1 1 1 1 1 1 1 0 1 2 2 3 3 3 4 5 6
1 0 1 2 3 3 2 3 3 2 2 2 1 0 0 0 1 1 1 1 2 1 1 1 1 1 2 2 2 2 2 2 3 3 3 3 4 5
1 1 1 1 2 2 3 4 5 4 3 2 2 2 2 2 1 1 1 0 2 1 0 2 0 1 2 2 3 3 2 2 2 3 3 4 4 5
2 1 1 1 2 2 2 3 1 2 4 4 4 4 3 3 3 2 2 2 3 2 1 2 1 2 3 3 4 3 3 3 3 3 3 4 4 4
2 2 2 1 1 2 2 2 2 1 1 1 3 3 3 2 3 3 2 1 1 1 1 1 2 2 2 2 4 4 4 4 4 4 3 4 4 4
1 1 2 1 1 4 4 2 1 2 2 2 1 0 0 1 2 2 1 1 1 2 0 1 1 2 2 2 3 4 4 4 5 5 5 4 4 4
1 1 2 2 2 4 3 3 1 1 1 2 2 3 2 1 1 2 2 1 1 2 2 1 1 0 2 2 2 2 3 4 4 4 4 4 3 1
1 1 1 2 2 3 3 2 2 1 0 1 1 2 2 1 1 0 1 2 2 3 2 1 1 1 2 2 2 2 2 2 2 3 4 5 3 1
2 1 1 2 1 2 2 1 1 2 1 1 1 1 1 1 1 1 1 1 2 3 2 2 2 2 2 2 3 2 2 2 1 2 2 4 3 3
2 2 2 2 1 0 0 1 2 2 1 1 0 1 1 1 1 1 2 1 2 2 1 1 1 1 2 2 3 2 2 2 1 2 2 2 2 2
1 1 1 1 1 0 1 0 0 1 2 2 1 1 1 0 1 1 1 1 2 3 3 1 1 2 1 2 2 3 2 2 2 2 2 2 2 2
3 2 1 1 1 1 1 1 0 0 1 1 1 1 1 1 1 1 1 1 1 2 3 2 2 1 1 2 2 3 2 2 3 2 2 2 3 3
5 2 1 1 1 1 1 1 1 1 1 1 1 2 2 2 2 1 1 1 2 2 2 2 2 2 2 2 3 3 2 3 3 2 2 2 4 4
3 2 2 2 2 2 2 2 2 2 1 2 2 2 2 2 2 2 2 2 2 2 2 1 1 1 2 4 4 3 3 2 2 2 2 3 4 5
2 3 3 3 3 3 3 3 2 2 1 2 2 2 2 2 2 2 2 2 2 2 2 2 2 3 4 4 3 3 3 3 2 3 4 3 4 5
3 3 3 3 3 3 3 3 3 3 2 2 2 3 2 2 3 3 3 4 3 2 3 4 4 4 2 0 2 3 3 5 5 4 3 3 3 3
3 4 3 3 3 3 3 3 3 3 3 3 3 3 3 3 3 3 3 3 3 3 3 3 2 1 1 3 4 5 4 4 5 6 6 5 3 3
4 3 3 3 3 3 3 3 4 3 3 3 3 3 3 3 3 3 3 3 2 3 3 3 2 2 2 3 4 4 5 4 3 3 4 6 7 8
Wind_Direction
108 104 99 96 101 106 123 138 139 136 275 281 297 300 295 285 286 71 63 103 98 93 90 82 70 61 53 45 38 33 30 27 24 21 18 15 13 13
103 101 95 92 85 88 105 110 124 137 164 249 248 261 271 87 92 59 48 93 99 97 100 98 85 74 60 51 42 34 28 24 22 19 17 14 11 10
87 105 106 104 97 90 93 97 103 118 133 277 325 336 51 64 36 24 24 32 78 107 103 102 90 78 66 54 44 36 28 20 15 12 12 11 8 6
122 111 108 104 93 90 99 103 118 131 136 149 327 354 13 294 67 42 41 58 54 112 106 109 95 68 56 49 42 37 25 16 10 6 7 6 2 1
167 159 162 131 124 127 127 123 125 118 124 138 166 344 354 10 36 25 31 3 340 57 78 95 85 67 58 62 44 25 20 10 1 1 359 356 355 356
164 172 175 163 170 167 153 151 130 113 112 120 123 18 346 353 73 35 342 328 311 331 3 10 5 5 2 13 345 334 344 354 356 354 350 347 344 346
83 85 180 169 179 168 154 159 142 131 128 131 154 143 267 261 234 224 231 303 305 283 330 312 325 328 321 317 303 298 316 339 347 344 342 336 334 334
116 46 28 89 98 116 126 151 158 157 165 166 184 200 230 224 206 194 185 141 291 278 170 285 277 279 278 272 278 293 304 320 322 327 333 333 328 329
131 119 79 67 82 84 78 68 89 171 178 173 185 212 212 214 186 193 205 207 231 240 151 266 279 269 276 276 264 275 292 303 310 309 316 330 329 326
140 143 129 93 102 107 99 68 33 2 274 174 194 217 222 206 188 189 191 207 282 295 146 226 260 262 280 286 276 271 282 295 299 301 306 320 324 320
127 115 131 135 116 116 107 96 36 348 1 37 41 330 224 160 140 107 92 85 296 288 226 192 249 277 283 276 282 284 285 295 296 292 291 301 315 318
85 108 142 139 136 137 135 138 153 285 359 19 20 16 12 6 92 161 170 179 236 270 256 184 233 251 291 279 276 287 290 291 296 299 297 297 311 310
161 188 220 163 145 157 157 167 202 194 149 92 27 5 7 6 349 300 194 183 200 244 247 173 208 225 229 278 291 275 267 274 282 287 297 302 301 273
183 202 206 172 160 154 162 189 153 102 87 71 43 355 342 330 328 332 313 264 229 233 235 180 196 215 227 268 279 294 291 281 269 272 283 300 290 285
172 175 177 169 146 104 2 138 126 122 119 114 244 273 278 280 322 349 349 353 351 323 309 229 203 225 214 235 256 266 286 290 270 274 282 272 264 261
156 134 118 100 71 13 26 56 143 170 170 196 226 254 271 281 288 297 319 328 333 322 326 321 249 206 233 249 247 268 262 269 282 273 273 276 274 258
134 105 89 70 27 341 334 315 276 189 215 217 216 243 258 262 275 287 275 294 271 279 305 328 334 309 233 223 243 256 267 277 271 273 269 276 272 264
130 143 176 200 225 236 249 273 274 250 240 231 230 233 239 245 262 281 269 256 264 267 273 284 315 343 346 313 230 230 255 271 281 273 254 262 274 273
146 183 204 217 228 230 231 235 248 246 231 226 239 245 245 247 253 261 263 270 274 272 270 263 269 270 287 288 286 233 225 262 283 285 260 248 261 268
190 205 220 226 228 230 232 237 244 247 237 236 238 240 238 245 255 252 248 253 265 273 275 259 239 235 237 251 264 276 249 233 247 266 274 271 271 281
217 223 226 227 230 230 233 233 231 233 236 236 238 239 237 240 252 257 256 256 260 261 264 263 256 252 249 264 282 281 276 260 246 245 257 272 286 288
223 228 231 231 232 232 233 233 237 239 237 238 243 242 238 236 242 247 247 253 259 257 263 272 277 266 230 242 261 269 279 291 288 280 262 241 239 248
228 230 230 230 230 231 233 236 240 243 239 240 242 242 238 241 243 240 241 243 252 265 275 275 276 266 257 248 258 267 273 283 289 297 290 288 280 282